Weather History for KLNK - June, 2014

Change the Weather History Date:

Thursday, June 26, 2014

  Actual Average Record
Temperature  
Mean Temperature 79 °F 76 °F  
Max Temperature 87 °F 87 °F 108 °F (1936)
Min Temperature 70 °F 64 °F 49 °F (1958)
Degree Days  
Heating Degree Days 0 0  
Month to date heating degree days 2 13  
Since 1 June heating degree days 2 13  
Since 1 July heating degree days 6484 6053  
Cooling Degree Days 14 11  
Month to date cooling degree days 233 198  
Year to date cooling degree days 393 277  
Since 1 June cooling degree days 233 198  
Growing Degree Days 28 (Base 50)    
Moisture  
Dew Point 68 °F    
Average Humidity 74    
Maximum Humidity 90    
Minimum Humidity 57    
Precipitation  
Precipitation 0.07 in 0.15 in 3.17 in (1888)
Month to date precipitation 5.33 3.82  
Year to date precipitation 15.08 14.16  
Snow  
Snow 0.00 in 0.00 in - ()
Month to date snowfall 0.0 0.0  
Since 1 July snowfall 18.2 25.9  
Snow Depth 0.00 in    
Sea Level Pressure  
Sea Level Pressure 29.86 in    
Wind  
Wind Speed 11 mph (South)    
Max Wind Speed 41 mph    
Max Gust Speed 48 mph    
Visibility 10 miles    
Events Rain , Thunderstorm    
T = Trace of Precipitation, MM = Missing Value Source: NWS Daily Summary

Daily Weather History Graph

Daily Weather History Graph

Search for Another Location

Airport or City:

Trip Planner

Search our weather history database for the weather conditions in past years. The results will help you decide how hot, cold, wet, or windy it might be!

Date:

Astronomy

Jun. 26, 2014 Rise Set
Actual Time 5:57 AM CDT 9:02 PM CDT
Civil Twilight 5:23 AM CDT 9:36 PM CDT
Nautical Twilight 4:40 AM CDT 10:18 PM CDT
Astronomical Twilight 3:50 AM CDT 11:09 PM CDT
Moon 5:37 AM CDT (6/26) 8:24 PM CDT (6/26)
Length of Visible Light 16h 12m
Length of Day
15h 05m
Waning Crescent, 0% of the Moon is Illuminated
Jun 26
Waning Crescent
Jun 27
New
Jul 5
First Quarter
Jul 12
Full
Jul 18
Last Quarter

Hourly Weather History & Observations

Time (CDT) Temp. Heat Index Dew Point Humidity Pressure Visibility Wind Dir Wind Speed Gust Speed Precip Events Conditions
12:03 AM 78.1 °F - 66.0 °F 66% 29.98 in 10.0 mi SW 20.7 mph - N/A Thunderstorm Thunderstorm
12:12 AM 75.0 °F - 68.0 °F 79% 29.98 in 2.0 mi SW 11.5 mph - 0.12 in Rain , Thunderstorm Heavy Thunderstorms and Rain
12:26 AM 73.4 °F - 68.0 °F 83% 29.97 in 5.0 mi South 8.1 mph - N/A Rain , Thunderstorm Light Thunderstorms and Rain
12:49 AM 73.4 °F - 69.8 °F 88% 29.98 in 10.0 mi NNW 9.2 mph - 0.24 in Rain , Thunderstorm Light Rain
12:54 AM 73.9 °F - 69.1 °F 85% 29.94 in 10.0 mi North 8.1 mph - 0.24 in Rain , Thunderstorm Light Rain
1:12 AM 73.9 °F - 68.0 °F 82% 29.96 in 10.0 mi SE 5.8 mph - 0.00 in Rain Light Rain
1:54 AM 73.9 °F - 68.0 °F 82% 29.92 in 10.0 mi SSE 5.8 mph - 0.00 in   Clear
2:54 AM 73.0 °F - 66.9 °F 81% 29.92 in 10.0 mi South 3.5 mph - N/A   Partly Cloudy
3:54 AM 72.0 °F - 66.9 °F 84% 29.90 in 10.0 mi SSE 6.9 mph - N/A   Scattered Clouds
4:54 AM 70.0 °F - 66.0 °F 87% 29.88 in 10.0 mi South 5.8 mph - N/A   Mostly Cloudy
5:54 AM 71.1 °F - 66.9 °F 87% 29.85 in 10.0 mi SSE 9.2 mph - N/A   Scattered Clouds
6:54 AM 72.0 °F - 66.9 °F 84% 29.88 in 10.0 mi South 6.9 mph - N/A   Clear
7:54 AM 73.0 °F - 68.0 °F 84% 29.88 in 10.0 mi South 10.4 mph - N/A   Clear
8:54 AM 77.0 °F - 70.0 °F 79% 29.88 in 10.0 mi SSW 11.5 mph - N/A   Clear
9:54 AM 79.0 °F - 70.0 °F 74% 29.87 in 10.0 mi South 10.4 mph - N/A   Partly Cloudy
10:54 AM 82.0 °F 86.3 °F 71.1 °F 69% 29.85 in 10.0 mi SSE 12.7 mph - N/A   Clear
11:54 AM 84.0 °F 89.0 °F 71.1 °F 65% 29.83 in 10.0 mi SSE 12.7 mph - N/A   Partly Cloudy
12:54 PM 84.9 °F 90.7 °F 72.0 °F 65% 29.83 in 10.0 mi SSE 10.4 mph 20.7 mph N/A   Mostly Cloudy
1:10 PM 87.1 °F 93.6 °F 72.0 °F 61% 29.86 in 10.0 mi South 13.8 mph 21.9 mph N/A   Scattered Clouds
1:54 PM 86.0 °F 90.7 °F 70.0 °F 59% 29.80 in 10.0 mi SSW 17.3 mph - N/A   Scattered Clouds
2:02 PM 86.0 °F 91.5 °F 71.1 °F 61% 29.83 in 10.0 mi South 16.1 mph - 0.00 in Rain , Thunderstorm Light Rain
2:46 PM 86.0 °F 90.1 °F 69.1 °F 57% 29.82 in 10.0 mi South 16.1 mph - 0.00 in   Mostly Cloudy
2:54 PM 84.0 °F 87.8 °F 69.1 °F 61% 29.78 in 10.0 mi South 20.7 mph 26.5 mph 0.00 in Thunderstorm Thunderstorm
3:05 PM 77.0 °F - 62.1 °F 60% 29.82 in 0.5 mi SSE 11.5 mph 48.3 mph 0.00 in Rain , Thunderstorm Heavy Thunderstorms and Rain
3:15 PM 78.8 °F - 69.8 °F 74% 29.81 in 10.0 mi South 6.9 mph 19.6 mph N/A Rain , Thunderstorm Thunderstorms and Rain
3:54 PM 77.0 °F - 69.1 °F 76% 29.84 in 10.0 mi South 6.9 mph - 0.01 in Rain , Thunderstorm Thunderstorms and Rain
4:02 PM 78.1 °F - 64.9 °F 64% 29.86 in 10.0 mi SW 6.9 mph - 0.00 in Thunderstorm Mostly Cloudy
4:28 PM 78.1 °F - 66.0 °F 66% 29.84 in 10.0 mi NNE 5.8 mph - 0.00 in   Clear
4:54 PM 78.1 °F - 69.1 °F 74% 29.81 in 10.0 mi ENE 5.8 mph - 0.00 in   Partly Cloudy
5:54 PM 79.0 °F - 68.0 °F 69% 29.77 in 10.0 mi SE 9.2 mph - N/A   Clear
6:32 PM 73.9 °F - 64.0 °F 71% 29.83 in 10.0 mi SE 20.7 mph 32.2 mph 0.00 in Rain , Thunderstorm Light Rain
6:47 PM 73.0 °F - 64.9 °F 76% 29.82 in 10.0 mi SSE 13.8 mph - 0.00 in   Overcast
6:54 PM 73.9 °F - 64.9 °F 73% 29.79 in 10.0 mi SSE 13.8 mph - 0.00 in   Mostly Cloudy
7:54 PM 73.9 °F - 64.9 °F 73% 29.78 in 10.0 mi SSE 12.7 mph - N/A   Clear
8:54 PM 73.0 °F - 66.0 °F 79% 29.78 in 10.0 mi South 13.8 mph - N/A   Clear
9:54 PM 73.0 °F - 66.0 °F 79% 29.78 in 10.0 mi SSE 13.8 mph - N/A   Clear
10:54 PM 73.9 °F - 66.0 °F 76% 29.78 in 10.0 mi South 13.8 mph - N/A   Clear
11:54 PM 73.9 °F - 66.9 °F 79% 29.78 in 10.0 mi South 12.7 mph - N/A   Overcast